User: anonymous   Login
Location: Muenchen
(48.1800°N, 11.5800°E)
Time: 00:40:16
(UTC+01:00)
Language:

Sich 1 Rocket - Orbit

View from above orbital plane
View from above orbital plane
View from above satellite
View from above satellite

Ground track
Ground track

The orbit data is extracted from the following two-line orbital elements,

1 23659U 95046C   14304.43915179  .00000544  00000-0  72052-4 0   613
2 23659 082.5278 115.8149 0027214 131.3868 288.9340 14.77854315 32772
Epoch (UTC): 31 October 2014 10:32:22
Eccentricity: 0.0027214
inclination: 82.5278°
perigee height: 617 km
apogee height: 655 km
right ascension of ascending node: 115.8149°
argument of perigee: 131.3868°
revolutions per day: 14.77854315
mean anomaly at epoch: 288.9340°
orbit number at epoch: 3277

The dashed part of the orbit path shows where the satellite is in the earth's shadow,  

DLR